SCP
0 0 0 0 0 0 0 0 0 0 0 0 0 0 0 0 0 0 0 0 0 0 0 0 0 0 0 0 0 0 0 0 0 0 0 0 0 0 0 0 0 0 0
0 0 0 0 0 0 0 0 0 0 0 0 0 0 0 0 0 0 0 0 0 0 0 0 0 0 0 0 0 0 0 0 0 0 0 0 0 0 0 0 0 0 0
0 0 0 0 0 0 0 0 0 0 0 0 0 0 0 0 0 0 0 0 0 0 0 0 0 0 0 0 0 0 0 0 0 0 0 0 0 0 0 0 0 0 0
0 0 0 -0 0 0 0 0 0 0 0 0 0 0 0 0 0 0 0 0 0 0 0 0 0 0 0 0 0 0 0 0 0 0 0 0 0 0 0 0 0 0 0
0 0 0 0 0 0 0 0 0 0 0 0 0 0 0 0 0 0 0 0 0 0 0 0 0 0 0 0 0 0 0 0 0 0 0 0 0 0 0 0 0 0 0
0 0 0 0 0 0 0 0 0 0 0 0 0 0 0 0 0 0 0 0 0 0 0 0 0 0 0 0 0 0 0 0 0 0 0 0 0 0 0 0 0 0 0
0 1 1 0 0 0 0 0 0 0 0 0 0 0 0 0 0 0 0 0 0 0 0 0 0 0 0 0 0 0 0 0 0 0 0 0 0 0 0 0 0 0 0
0 1 0 0 0 0 0 0 0 0 0 0 0 0 0 0 0 0 0 0 0 0 0 0 0 0 0 0 0 0 0 0 0 0 0 0 0 0 0 0 0 0 0
0 0 0 0 0 0 0 0 0 0 0 0 0 0 0 0 0 0 0 0 0 0 0 0 0 0 0 0 0 0 0 0 0 0 0 0 0 0 0 0 0 0 0
0 0 0 0 0 0 0 0 0 0 0 0 0 0 0 0 0 0 0 0 0 0 0 0 0 0 0 0 0 0 0 0 0 0 0 0 0 0 0 0 0 0 0
0 0 0 0 0 0 0 0 0 0 0 0 0 0 0 0 0 0 0 0 0 0 0 0 0 0 0 0 0 0 0 0 0 0 0 0 0 0 0 0 0 0 0
0 0 0 0 0 0 0 0 0 0 0 0 0 0 0 0 0 0 0 0 0 0 0 0 0 0 0 0 0 0 0 0 0 0 0 0 0 0 0 0 0 0 0
0 0 0 0 0 0 0 0 0 0 0 0 0 0 0 0 0 0 0 0 0 0 0 0 0 0 0 0 0 0 0 0 0 0 0 0 0 0 0 0 0 0 0
0 0 0 0 0 0 0 0 0 0 0 0 0 0 0 0 0 0 0 0 0 0 0 0 0 0 0 0 0 0 0 0 0 0 0 0 0 0 0 0 0 0 0
0 0 0 0 0 0 0 0 0 0 0 0 0 0 0 0 0 0 0 0 0 0 0 0 0 0 0 0 0 0 0 0 0 0 0 0 0 0 0 0 0 0 0
0 0 0 0 0 0 0 0 0 0 0 0 0 0 0 0 0 0 0 0 0 0 0 0 0 0 0 0 0 0 0 0 0 0 0 0 0 0 0 0 0 0 0
0 0 0 0 0 0 0 0 0 0 0 0 0 0 0 0 -0 -0 -0 -0 -0 -0 -0 -0 -0 0 0 0 -0 0 0 0 0 0 0 0 0 0 0 0 0 0 0
0 0 0 0 0 0 0 0 0 0 -0 0 0 -0 0 -0 -0 -0 -0 -0 -0 -0 0 -0 -0 -0 0 0 0 0 0 0 0 0 0 0 0 0 0 0 0 0 0
0 0 0 0 0 0 0 0 -0 -0 0 -0 -0 -0 -0 0 0 -0 -0 -0 0 0 0 0 0 0 0 -0 0 0 0 0 0 0 0 0 0 0 0 0 0 0 0
0 0 0 0 0 -0 -0 -0 -0 -0 -0 -0 -0 -0 0 0 0 -0 0 0 0 0 0 0 0 0 0 0 0 0 0 0 0 0 0 0 0 0 0 0 0 0 0
0 0 0 -0 -0 -0 -0 -0 -0 -0 -0 0 0 -0 0 0 0 0 0 0 0 0 0 0 0 0 0 0 0 0 0 0 0 0 0 0 0 0 0 0 0 0 0
0 0 -0 -0 -0 -0 -0 -0 -0 -0 -0 -0 -0 0 0 0 0 0 0 0 0 0 0 0 0 0 0 0 0 0 0 0 0 0 0 0 0 0 0 0 0 0 0
-0 -0 -0 -0 -0 0 -0 0 -0 0 -0 0 0 -0 0 0 0 0 0 0 0 0 0 0 0 0 0 0 0 0 0 0 0 0 0 0 0 0 0 0 0 0 0
-0 -0 -0 0 0 0 0 -0 -0 -0 -0 0 0 0 0 0 0 0 0 0 0 0 0 0 -0 0 0 0 0 0 0 0 0 0 0 0 0 0 0 0 0 0 0
-0 -0 -0 -0 -0 -0 -0 -0 -0 -0 0 0 0 0 0 -0 -0 0 0 0 0 0 0 0 0 0 0 0 0 0 0 0 0 0 0 0 0 0 0 0 0 0 0
0 0 0 0 0 0 0 0 0 0 0 0 -0 -0 0 0 0 0 -0 0 -0 0 0 0 0 0 0 0 0 0 0 0 0 0 0 0 0 0 0 0 0 0 0
Wind_Speed_500mb
71 74 81 93 88 88 88 92 88 82 80 83 75 69 67 64 63 59 52 40 38 41 39 37 36 36 33 31 29 30 30 22 15 26 35 28 20 15 8 9 16 9 7
71 72 80 86 89 86 90 88 82 76 73 80 75 74 73 65 58 52 45 38 33 37 35 32 33 33 31 32 30 28 28 22 20 49 43 34 27 19 11 2 3 8 12
83 109 111 111 107 102 103 96 87 77 75 76 73 65 66 64 59 51 40 34 32 34 38 35 32 30 28 29 25 24 25 22 23 48 31 26 17 33 19 19 12 10 14
107 136 133 128 119 106 100 96 83 77 77 75 72 73 71 65 55 46 38 28 25 28 34 33 30 28 25 21 19 20 23 23 25 38 44 36 31 27 25 27 19 14 12
64 100 136 128 114 108 107 92 79 70 68 67 64 65 65 61 56 47 34 26 24 26 26 26 24 21 18 18 18 19 20 21 22 26 33 29 34 38 46 40 29 23 18
53 67 62 71 96 99 96 87 81 68 63 65 67 70 69 64 51 37 30 23 21 19 18 18 18 17 14 15 20 22 21 21 22 22 26 23 30 38 48 45 36 35 24
53 76 62 77 87 95 87 81 73 70 74 67 61 57 55 49 40 35 30 21 20 18 15 15 16 16 17 17 18 23 23 20 18 17 19 22 22 27 33 29 29 39 43
50 16 50 66 66 86 84 78 75 73 57 49 44 35 33 38 35 31 24 19 19 12 13 14 15 16 16 19 21 24 27 23 19 15 14 13 15 16 20 25 33 43 35
60 33 20 30 73 84 74 73 78 62 46 42 44 42 43 42 37 28 25 27 20 14 7 10 17 20 20 19 20 24 24 25 22 16 13 13 15 13 13 13 18 31 22
41 36 28 16 37 59 70 42 39 45 43 42 42 42 36 32 33 33 40 34 22 14 9 13 21 24 22 20 21 21 22 19 21 16 12 15 13 10 9 6 5 6 8
36 31 26 40 48 30 45 52 43 35 27 29 32 35 35 33 33 38 38 30 18 8 8 16 22 23 21 23 22 21 18 18 19 18 17 15 12 8 6 5 1 3 6
33 44 45 42 39 36 43 20 16 18 22 26 31 27 29 28 30 32 31 27 23 18 17 22 23 27 25 20 19 22 21 18 15 11 9 7 6 5 5 5 5 13 15
30 36 43 43 42 45 39 34 34 33 28 25 23 31 25 27 29 31 29 24 20 22 24 22 20 22 26 22 19 17 16 14 12 8 1 2 3 1 5 12 13 17 23
24 32 36 42 46 52 52 54 45 39 41 34 29 20 16 21 25 28 28 24 22 22 21 19 16 17 19 20 17 17 16 12 6 1 2 2 5 10 14 19 22 27 34
23 30 36 39 37 40 45 50 51 50 42 30 15 10 15 22 23 24 26 27 26 24 22 20 16 17 22 20 19 17 12 4 3 4 7 12 15 16 20 26 28 30 38
19 29 26 24 29 40 42 39 32 20 7 5 10 7 11 16 16 15 21 21 20 20 21 20 20 22 17 12 11 17 14 4 10 14 16 19 21 17 21 27 31 33 42
25 26 22 22 29 30 23 21 16 10 14 13 10 11 13 13 14 11 7 9 7 11 15 17 18 12 13 13 13 10 9 10 10 15 19 23 18 20 26 32 37 41 45
23 24 19 21 23 16 18 17 5 17 17 19 9 13 8 6 9 11 11 15 13 8 7 6 5 8 10 13 11 11 14 20 23 25 25 29 30 29 32 42 48 48 48
20 17 12 13 16 21 20 26 25 16 15 21 18 15 10 10 17 19 18 16 14 10 5 4 4 6 7 9 11 13 17 24 29 34 39 42 46 40 42 49 48 48 47
9 9 11 15 20 26 29 26 18 18 21 20 16 14 14 8 7 10 9 6 5 4 2 1 3 6 9 13 19 24 32 37 39 42 46 48 51 51 49 54 49 51 50
16 11 27 24 25 26 21 19 17 21 15 14 17 18 14 11 9 8 7 8 8 8 11 14 13 19 26 30 34 35 40 42 44 50 49 59 60 56 43 49 48 50 51
19 24 32 20 25 26 24 18 15 8 12 18 15 14 11 10 8 9 12 14 16 18 21 23 24 28 32 37 36 37 41 43 43 44 40 43 49 51 42 42 42 47 51
30 19 22 22 24 23 22 17 9 17 22 20 17 15 14 12 13 15 16 16 18 22 26 27 30 32 33 36 35 37 39 38 36 36 37 40 30 28 34 41 46 32 30
27 29 29 27 23 24 25 23 18 17 19 20 19 16 19 19 20 20 21 23 25 26 30 30 31 31 29 32 34 28 25 26 26 27 27 28 29 32 38 23 19 19 33
28 30 28 26 25 25 29 30 29 23 25 25 27 28 23 27 23 22 21 22 27 30 32 31 28 24 26 25 20 20 22 23 25 27 28 28 25 27 16 19 22 28 32
30 35 34 32 25 22 16 15 20 28 23 21 24 24 24 23 25 26 27 27 21 21 23 21 23 27 19 17 16 17 21 22 22 28 27 16 15 17 20 24 30 31 33
Wind_Direction_500mb
197 197 195 197 194 196 195 196 193 197 204 201 202 205 210 214 223 228 233 230 229 233 232 232 237 245 254 262 269 270 266 258 228 175 167 168 175 175 221 271 316 341 351
166 169 172 175 186 191 196 196 196 200 205 208 205 209 213 217 224 226 228 231 228 237 239 237 243 251 258 266 269 259 244 231 196 169 164 150 157 152 152 206 352 39 45
181 187 185 190 195 198 199 203 199 197 198 205 210 208 210 216 218 221 226 233 234 239 244 246 248 255 260 262 257 241 230 222 192 182 178 160 175 145 137 137 120 79 51
204 195 192 196 198 206 200 200 195 193 199 210 212 216 214 214 219 227 225 229 232 230 236 243 248 251 245 241 235 225 221 216 202 191 200 200 183 175 153 156 148 122 84
231 197 196 195 197 202 198 196 199 196 198 207 215 218 217 216 214 211 214 213 233 233 230 232 233 234 229 224 212 206 211 211 216 202 191 192 188 191 167 147 143 153 141
254 223 220 193 194 197 194 196 198 198 203 209 211 214 210 210 203 196 204 208 220 217 213 215 214 214 208 200 197 195 200 212 214 204 195 186 178 174 170 160 151 140 152
299 217 201 193 193 190 188 190 192 198 203 206 200 197 200 207 210 204 201 209 220 203 203 207 206 199 192 181 178 185 191 193 202 192 190 186 178 175 183 173 164 141 138
28 186 198 185 180 181 183 187 187 176 174 177 188 190 187 187 189 194 174 201 186 159 161 181 182 179 169 163 162 167 175 177 179 175 167 175 167 176 180 182 170 157 157
36 58 103 159 174 182 177 180 164 158 168 176 177 175 178 184 182 180 201 194 179 169 182 184 174 170 158 151 156 158 159 170 170 161 154 157 150 154 154 161 165 187 187
50 50 81 85 115 143 153 154 139 139 156 160 166 171 176 180 186 189 182 178 178 180 187 182 173 166 159 142 151 153 147 157 163 156 154 156 152 152 158 173 202 209 203
68 82 93 111 112 134 141 139 126 134 147 164 163 168 173 174 161 158 166 171 182 196 193 179 172 171 165 152 146 148 147 148 145 143 142 149 149 150 152 128 201 311 309
127 132 124 125 124 126 139 121 277 184 172 165 159 168 173 177 175 171 176 180 185 183 178 167 160 160 169 156 144 138 138 134 130 125 124 124 132 134 80 29 347 16 353
122 135 142 143 145 145 152 147 151 158 176 170 172 188 182 189 178 174 176 180 184 174 167 164 155 156 166 167 157 147 145 145 142 139 118 359 337 322 338 351 349 340 353
128 131 136 138 146 150 154 157 160 168 170 170 165 162 173 189 189 186 179 178 176 171 173 171 156 160 163 168 170 175 171 175 192 197 242 358 312 315 322 330 327 326 335
136 126 126 131 137 157 161 158 157 164 169 172 175 202 202 191 197 191 184 186 191 188 186 181 180 175 163 159 181 197 192 217 243 318 329 341 316 305 302 300 316 313 320
159 145 136 152 165 157 151 151 153 156 172 227 228 212 168 172 173 185 178 182 199 201 204 196 192 196 191 216 236 217 246 315 347 341 334 325 307 301 290 288 296 299 306
169 167 162 179 173 156 152 168 169 204 166 139 123 163 159 136 144 152 167 152 163 196 204 214 202 220 226 219 226 239 273 293 300 312 320 318 298 294 298 298 297 297 298
186 187 181 171 168 176 221 199 207 145 126 130 174 197 195 185 182 157 129 113 128 144 176 203 217 245 232 226 235 244 264 280 289 296 309 308 299 294 305 308 301 296 290
165 143 177 247 219 197 170 137 144 171 182 184 166 161 152 115 103 123 125 116 108 97 97 131 185 256 253 244 258 259 271 279 287 296 295 293 291 293 293 300 299 295 293
254 209 206 210 186 157 159 162 177 178 185 199 197 177 190 142 130 113 75 82 81 64 34 167 268 276 269 257 265 268 272 277 283 286 285 282 276 280 286 297 292 288 293
200 210 176 167 180 180 204 209 206 226 227 227 230 222 219 196 191 177 224 269 296 300 293 290 293 293 290 288 281 278 279 284 286 285 289 282 276 273 285 292 285 292 302
200 187 201 190 187 192 202 215 215 215 224 211 199 200 205 208 202 244 263 274 277 284 285 290 292 286 282 282 284 278 277 277 276 278 285 281 286 284 289 288 297 299 299
199 203 192 186 190 194 212 221 221 200 193 203 188 182 184 218 233 239 252 273 284 281 284 284 283 284 286 290 286 284 277 274 276 275 273 281 283 288 290 292 294 291 302
191 195 199 206 205 202 200 218 221 228 202 209 224 230 208 227 254 262 274 282 289 288 287 286 282 286 292 295 295 289 283 283 281 285 280 280 281 287 293 282 279 280 304
213 203 210 217 222 220 229 233 230 235 221 228 224 235 233 246 250 262 283 287 287 283 278 275 276 278 290 289 283 284 282 279 283 283 283 286 289 290 262 269 279 292 295
217 226 228 230 227 225 227 228 219 223 231 234 235 236 240 249 263 271 274 270 277 286 277 274 272 270 254 270 296 313 297 285 289 291 286 255 259 266 276 280 284 284 291
Wind_Speed_850mb
71 74 81 93 88 88 88 92 88 82 80 83 75 69 67 64 63 59 52 40 38 41 39 37 36 36 33 31 29 30 30 22 15 26 35 28 20 15 8 9 16 9 7
71 72 80 86 89 86 90 88 82 76 73 80 75 74 73 65 58 52 45 38 33 37 35 32 33 33 31 32 30 28 28 22 20 49 43 34 27 19 11 2 3 8 12
83 109 111 111 107 102 103 96 87 77 75 76 73 65 66 64 59 51 40 34 32 34 38 35 32 30 28 29 25 24 25 22 23 48 31 26 17 33 19 19 12 10 14
107 136 133 128 119 106 100 96 83 77 77 75 72 73 71 65 55 46 38 28 25 28 34 33 30 28 25 21 19 20 23 23 25 38 44 36 31 27 25 27 19 14 12
64 100 136 128 114 108 107 92 79 70 68 67 64 65 65 61 56 47 34 26 24 26 26 26 24 21 18 18 18 19 20 21 22 26 33 29 34 38 46 40 29 23 18
53 67 62 71 96 99 96 87 81 68 63 65 67 70 69 64 51 37 30 23 21 19 18 18 18 17 14 15 20 22 21 21 22 22 26 23 30 38 48 45 36 35 24
53 76 62 77 87 95 87 81 73 70 74 67 61 57 55 49 40 35 30 21 20 18 15 15 16 16 17 17 18 23 23 20 18 17 19 22 22 27 33 29 29 39 43
50 16 50 66 66 86 84 78 75 73 57 49 44 35 33 38 35 31 24 19 19 12 13 14 15 16 16 19 21 24 27 23 19 15 14 13 15 16 20 25 33 43 35
60 33 20 30 73 84 74 73 78 62 46 42 44 42 43 42 37 28 25 27 20 14 7 10 17 20 20 19 20 24 24 25 22 16 13 13 15 13 13 13 18 31 22
41 36 28 16 37 59 70 42 39 45 43 42 42 42 36 32 33 33 40 34 22 14 9 13 21 24 22 20 21 21 22 19 21 16 12 15 13 10 9 6 5 6 8
36 31 26 40 48 30 45 52 43 35 27 29 32 35 35 33 33 38 38 30 18 8 8 16 22 23 21 23 22 21 18 18 19 18 17 15 12 8 6 5 1 3 6
33 44 45 42 39 36 43 20 16 18 22 26 31 27 29 28 30 32 31 27 23 18 17 22 23 27 25 20 19 22 21 18 15 11 9 7 6 5 5 5 5 13 15
30 36 43 43 42 45 39 34 34 33 28 25 23 31 25 27 29 31 29 24 20 22 24 22 20 22 26 22 19 17 16 14 12 8 1 2 3 1 5 12 13 17 23
24 32 36 42 46 52 52 54 45 39 41 34 29 20 16 21 25 28 28 24 22 22 21 19 16 17 19 20 17 17 16 12 6 1 2 2 5 10 14 19 22 27 34
23 30 36 39 37 40 45 50 51 50 42 30 15 10 15 22 23 24 26 27 26 24 22 20 16 17 22 20 19 17 12 4 3 4 7 12 15 16 20 26 28 30 38
19 29 26 24 29 40 42 39 32 20 7 5 10 7 11 16 16 15 21 21 20 20 21 20 20 22 17 12 11 17 14 4 10 14 16 19 21 17 21 27 31 33 42
25 26 22 22 29 30 23 21 16 10 14 13 10 11 13 13 14 11 7 9 7 11 15 17 18 12 13 13 13 10 9 10 10 15 19 23 18 20 26 32 37 41 45
23 24 19 21 23 16 18 17 5 17 17 19 9 13 8 6 9 11 11 15 13 8 7 6 5 8 10 13 11 11 14 20 23 25 25 29 30 29 32 42 48 48 48
20 17 12 13 16 21 20 26 25 16 15 21 18 15 10 10 17 19 18 16 14 10 5 4 4 6 7 9 11 13 17 24 29 34 39 42 46 40 42 49 48 48 47
9 9 11 15 20 26 29 26 18 18 21 20 16 14 14 8 7 10 9 6 5 4 2 1 3 6 9 13 19 24 32 37 39 42 46 48 51 51 49 54 49 51 50
16 11 27 24 25 26 21 19 17 21 15 14 17 18 14 11 9 8 7 8 8 8 11 14 13 19 26 30 34 35 40 42 44 50 49 59 60 56 43 49 48 50 51
19 24 32 20 25 26 24 18 15 8 12 18 15 14 11 10 8 9 12 14 16 18 21 23 24 28 32 37 36 37 41 43 43 44 40 43 49 51 42 42 42 47 51
30 19 22 22 24 23 22 17 9 17 22 20 17 15 14 12 13 15 16 16 18 22 26 27 30 32 33 36 35 37 39 38 36 36 37 40 30 28 34 41 46 32 30
27 29 29 27 23 24 25 23 18 17 19 20 19 16 19 19 20 20 21 23 25 26 30 30 31 31 29 32 34 28 25 26 26 27 27 28 29 32 38 23 19 19 33
28 30 28 26 25 25 29 30 29 23 25 25 27 28 23 27 23 22 21 22 27 30 32 31 28 24 26 25 20 20 22 23 25 27 28 28 25 27 16 19 22 28 32
30 35 34 32 25 22 16 15 20 28 23 21 24 24 24 23 25 26 27 27 21 21 23 21 23 27 19 17 16 17 21 22 22 28 27 16 15 17 20 24 30 31 33
Wind_Direction_850mb
197 197 195 197 194 196 195 196 193 197 204 201 202 205 210 214 223 228 233 230 229 233 232 232 237 245 254 262 269 270 266 258 228 175 167 168 175 175 221 271 316 341 351
166 169 172 175 186 191 196 196 196 200 205 208 205 209 213 217 224 226 228 231 228 237 239 237 243 251 258 266 269 259 244 231 196 169 164 150 157 152 152 206 352 39 45
181 187 185 190 195 198 199 203 199 197 198 205 210 208 210 216 218 221 226 233 234 239 244 246 248 255 260 262 257 241 230 222 192 182 178 160 175 145 137 137 120 79 51
204 195 192 196 198 206 200 200 195 193 199 210 212 216 214 214 219 227 225 229 232 230 236 243 248 251 245 241 235 225 221 216 202 191 200 200 183 175 153 156 148 122 84
231 197 196 195 197 202 198 196 199 196 198 207 215 218 217 216 214 211 214 213 233 233 230 232 233 234 229 224 212 206 211 211 216 202 191 192 188 191 167 147 143 153 141
254 223 220 193 194 197 194 196 198 198 203 209 211 214 210 210 203 196 204 208 220 217 213 215 214 214 208 200 197 195 200 212 214 204 195 186 178 174 170 160 151 140 152
299 217 201 193 193 190 188 190 192 198 203 206 200 197 200 207 210 204 201 209 220 203 203 207 206 199 192 181 178 185 191 193 202 192 190 186 178 175 183 173 164 141 138
28 186 198 185 180 181 183 187 187 176 174 177 188 190 187 187 189 194 174 201 186 159 161 181 182 179 169 163 162 167 175 177 179 175 167 175 167 176 180 182 170 157 157
36 58 103 159 174 182 177 180 164 158 168 176 177 175 178 184 182 180 201 194 179 169 182 184 174 170 158 151 156 158 159 170 170 161 154 157 150 154 154 161 165 187 187
50 50 81 85 115 143 153 154 139 139 156 160 166 171 176 180 186 189 182 178 178 180 187 182 173 166 159 142 151 153 147 157 163 156 154 156 152 152 158 173 202 209 203
68 82 93 111 112 134 141 139 126 134 147 164 163 168 173 174 161 158 166 171 182 196 193 179 172 171 165 152 146 148 147 148 145 143 142 149 149 150 152 128 201 311 309
127 132 124 125 124 126 139 121 277 184 172 165 159 168 173 177 175 171 176 180 185 183 178 167 160 160 169 156 144 138 138 134 130 125 124 124 132 134 80 29 347 16 353
122 135 142 143 145 145 152 147 151 158 176 170 172 188 182 189 178 174 176 180 184 174 167 164 155 156 166 167 157 147 145 145 142 139 118 359 337 322 338 351 349 340 353
128 131 136 138 146 150 154 157 160 168 170 170 165 162 173 189 189 186 179 178 176 171 173 171 156 160 163 168 170 175 171 175 192 197 242 358 312 315 322 330 327 326 335
136 126 126 131 137 157 161 158 157 164 169 172 175 202 202 191 197 191 184 186 191 188 186 181 180 175 163 159 181 197 192 217 243 318 329 341 316 305 302 300 316 313 320
159 145 136 152 165 157 151 151 153 156 172 227 228 212 168 172 173 185 178 182 199 201 204 196 192 196 191 216 236 217 246 315 347 341 334 325 307 301 290 288 296 299 306
169 167 162 179 173 156 152 168 169 204 166 139 123 163 159 136 144 152 167 152 163 196 204 214 202 220 226 219 226 239 273 293 300 312 320 318 298 294 298 298 297 297 298
186 187 181 171 168 176 221 199 207 145 126 130 174 197 195 185 182 157 129 113 128 144 176 203 217 245 232 226 235 244 264 280 289 296 309 308 299 294 305 308 301 296 290
165 143 177 247 219 197 170 137 144 171 182 184 166 161 152 115 103 123 125 116 108 97 97 131 185 256 253 244 258 259 271 279 287 296 295 293 291 293 293 300 299 295 293
254 209 206 210 186 157 159 162 177 178 185 199 197 177 190 142 130 113 75 82 81 64 34 167 268 276 269 257 265 268 272 277 283 286 285 282 276 280 286 297 292 288 293
200 210 176 167 180 180 204 209 206 226 227 227 230 222 219 196 191 177 224 269 296 300 293 290 293 293 290 288 281 278 279 284 286 285 289 282 276 273 285 292 285 292 302
200 187 201 190 187 192 202 215 215 215 224 211 199 200 205 208 202 244 263 274 277 284 285 290 292 286 282 282 284 278 277 277 276 278 285 281 286 284 289 288 297 299 299
199 203 192 186 190 194 212 221 221 200 193 203 188 182 184 218 233 239 252 273 284 281 284 284 283 284 286 290 286 284 277 274 276 275 273 281 283 288 290 292 294 291 302
191 195 199 206 205 202 200 218 221 228 202 209 224 230 208 227 254 262 274 282 289 288 287 286 282 286 292 295 295 289 283 283 281 285 280 280 281 287 293 282 279 280 304
213 203 210 217 222 220 229 233 230 235 221 228 224 235 233 246 250 262 283 287 287 283 278 275 276 278 290 289 283 284 282 279 283 283 283 286 289 290 262 269 279 292 295
217 226 228 230 227 225 227 228 219 223 231 234 235 236 240 249 263 271 274 270 277 286 277 274 272 270 254 270 296 313 297 285 289 291 286 255 259 266 276 280 284 284 291